Location: Treviso
(45.6669°N, 12.2430°E)
Time: 11:53:22
(UTC+02:00)

CUBESAT XI-V - Pass Details

Date: 05 May 2019
Orbit: 668 x 694 km, 98.0° (Epoch: 25 May)

Event Time Altitude Azimuth Distance (km) Brightness Sun altitude
Exits shadow 03:54:13 23° 179° (S) 1,429 ? -17.6°
Maximum altitude 03:57:04 70° 258° (WSW) 729 ? -17.3°
Drops below altitude 10° 04:01:42 10° 342° (NNW) 2,125 ? -16.8°
Sets 04:03:58 0° 345° (NNW) 3,041 ? -16.5°
